Location: Killam
(52.7910°N, 111.8608°W)
Time: 06:03:39
(UTC+00:00)

A-11 Canister half - Pass Details

Date: 21 February 2026
Orbit: 1524 x 1683 km, 47.3° (Epoch: 13 March)

Event Time Altitude Azimuth Distance (km) Brightness Sun altitude
Rises 06:26:38 0° 285° (WNW) 4,678 11.9 -45.2°
Reaches altitude 10° 06:30:55 10° 267° (W) 3,698 11.1 -45.4°
Enters shadow 06:32:41 14° 257° (WSW) 3,405 10.8 -45.5°
Maximum altitude 06:36:31 18° 230° (SW) 3,130 - -45.8°
Drops below altitude 10° 06:42:10 10° 192° (SSW) 3,731 - -46.1°
Sets 06:46:33 0° 174° (S) 4,737 - -46.3°
